| time (UTC) | temp F | wind direction | speed knots | gust knots | rain 1hr in | rain 24hr in | rain mn in | humidity % | barometer mb |
| 20260503204204 | 46 | 347 | 1.7 | 2.6 | 0.00 | 0.00 | 0.00 | 98 | 1036.2 |
| 20260503203704 | 46 | 337 | 1.7 | 1.7 | 0.00 | 0.00 | 0.00 | 98 | 1036.1 |
| 20260503203204 | 46 | 269 | 1.7 | 4.3 | 0.00 | 0.00 | 0.00 | 98 | 1036.1 |
| 20260503202704 | 46 | 264 | 1.7 | 4.3 | 0.00 | 0.00 | 0.00 | 98 | 1036.1 |
| 20260503201204 | 44 | 310 | 1.7 | 4.3 | 0.00 | 0.00 | 0.00 | 98 | 1036.1 |
| 20260503200704 | 44 | 347 | 1.7 | 2.6 | 0.00 | 0.00 | 0.00 | 98 | 1035.9 |
| 20260503200204 | 44 | 228 | 1.7 | 2.6 | 0.00 | 0.00 | 0.00 | 98 | 1036.0 |
| 20260503195704 | 44 | 221 | 1.7 | 2.6 | 0.00 | 0.00 | 0.00 | 98 | 1035.9 |
| 20260503195205 | 44 | 205 | 0.0 | 1.7 | 0.00 | 0.00 | 0.00 | 98 | 1036.0 |
| 20260503193704 | 43 | 213 | 0.0 | 0.9 | 0.00 | 0.00 | 0.00 | 98 | 1035.8 |
| 20260503193204 | 43 | 241 | 0.0 | 1.7 | 0.00 | 0.00 | 0.00 | 98 | 1035.6 |
| 20260503192204 | 43 | 248 | 1.7 | 1.7 | 0.00 | 0.00 | 0.00 | 97 | 1035.7 |
| 20260503191204 | 43 | 270 | 0.9 | 2.6 | 0.00 | 0.00 | 0.00 | 97 | 1035.7 |
| 20260503190204 | 43 | 292 | 1.7 | 4.3 | 0.00 | 0.00 | 0.00 | 97 | 1035.3 |
| 20260503185704 | 42 | 272 | 2.6 | 5.2 | 0.00 | 0.00 | 0.00 | 97 | 1035.5 |
| 20260503185204 | 42 | 281 | 1.7 | 4.3 | 0.00 | 0.00 | 0.00 | 97 | 1035.3 |
| 20260503184705 | 42 | 301 | 1.7 | 4.3 | 0.00 | 0.00 | 0.00 | 97 | 1035.3 |
| 20260503184203 | 42 | 322 | 1.7 | 4.3 | 0.00 | 0.00 | 0.00 | 97 | 1035.2 |
| 20260503183705 | 42 | 255 | 2.6 | 6.1 | 0.00 | 0.00 | 0.00 | 97 | 1035.1 |
| 20260503183204 | 42 | 306 | 2.6 | 2.6 | 0.00 | 0.00 | 0.00 | 97 | 1035.0 |
| 20260503182204 | 42 | 299 | 1.7 | 2.6 | 0.00 | 0.00 | 0.00 | 97 | 1035.0 |
| 20260503181704 | 42 | 308 | 2.6 | 5.2 | 0.00 | 0.00 | 0.00 | 97 | 1035.0 |
| 20260503181204 | 42 | 292 | 3.5 | 5.2 | 0.00 | 0.00 | 0.00 | 97 | 1035.0 |
| 20260503180703 | 42 | 302 | 2.6 | 4.3 | 0.00 | 0.00 | 0.00 | 97 | 1034.9 |
| 20260503180204 | 42 | 299 | 2.6 | 6.1 | 0.00 | 0.00 | 0.00 | 97 | 1034.7 |
| 20260503175705 | 42 | 294 | 4.3 | 5.2 | 0.00 | 0.00 | 0.00 | 97 | 1034.7 |
| 20260503175204 | 42 | 299 | 3.5 | 5.2 | 0.00 | 0.00 | 0.00 | 96 | 1034.6 |
| 20260503174705 | 43 | 311 | 1.7 | 5.2 | 0.00 | 0.00 | 0.00 | 96 | 1034.9 |
| 20260503174203 | 43 | 293 | 2.6 | 4.3 | 0.00 | 0.00 | 0.00 | 96 | 1034.7 |
| 20260503173704 | 43 | 304 | 1.7 | 4.3 | 0.00 | 0.00 | 0.00 | 96 | 1034.6 |
| 20260503173204 | 43 | 299 | 2.6 | 4.3 | 0.00 | 0.00 | 0.00 | 96 | 1034.6 |
| 20260503172705 | 43 | 293 | 1.7 | 4.3 | 0.00 | 0.00 | 0.00 | 96 | 1034.5 |
| 20260503172204 | 43 | 288 | 1.7 | 2.6 | 0.00 | 0.00 | 0.00 | 96 | 1034.6 |
| 20260503171704 | 43 | 189 | 0.0 | 0.9 | 0.00 | 0.00 | 0.00 | 96 | 1034.7 |
| 20260503171204 | 43 | 216 | 0.0 | 1.7 | 0.00 | 0.00 | 0.00 | 96 | 1034.6 |
| 20260503170704 | 44 | 232 | 1.7 | 4.3 | 0.00 | 0.00 | 0.00 | 96 | 1034.7 |
| 20260503160205 | 44 | 223 | 0.9 | 1.7 | 0.00 | 0.00 | 0.00 | 94 | 1034.9 |
| 20260503150703 | 47 | 141 | 0.0 | 0.0 | 0.00 | 0.00 | 0.00 | 94 | 1035.1 |
| 20260503150204 | 47 | 16 | 0.0 | 0.0 | 0.00 | 0.00 | 0.00 | 94 | 1035.5 |
| 20260503130704 | 46 | 121 | 0.9 | 2.6 | 0.00 | 0.00 | 0.00 | 94 | 1035.7 |
| 20260503130204 | 46 | 75 | 0.9 | 2.6 | 0.00 | 0.00 | 0.00 | 94 | 1035.9 |
| 20260503120205 | 43 | 117 | 0.0 | 0.9 | 0.00 | 0.00 | 0.00 | 95 | 1035.8 |
| 20260503110704 | 43 | 296 | 0.9 | 1.7 | 0.00 | 0.00 | 0.00 | 94 | 1035.5 |
| 20260503110204 | 43 | 281 | 1.7 | 1.7 | 0.00 | 0.00 | 0.00 | 94 | 1035.4 |
| 20260503090204 | 44 | 234 | 0.0 | 0.0 | 0.00 | 0.00 | 0.00 | 91 | 1034.5 |
| 20260503081204 | 46 | 300 | 0.0 | 0.0 | 0.00 | 0.00 | 0.00 | 90 | 1034.2 |
| 20260503080704 | 46 | 300 | 0.0 | 0.9 | 0.00 | 0.00 | 0.00 | 90 | 1034.2 |
| 20260503080204 | 46 | 95 | 0.0 | 0.0 | 0.00 | 0.00 | 0.00 | 90 | 1034.3 |
| 20260503072703 | 48 | 290 | 0.0 | 0.9 | 0.00 | 0.00 | 0.00 | 88 | 1034.1 |
| 20260503072205 | 48 | 308 | 0.0 | 0.0 | 0.00 | 0.00 | 0.00 | 88 | 1034.1 |
| 20260503071204 | 48 | 141 | 0.0 | 0.9 | 0.00 | 0.00 | 0.00 | 88 | 1034.1 |
| 20260503070704 | 48 | 179 | 0.0 | 0.9 | 0.00 | 0.00 | 0.00 | 87 | 1034.1 |
| 20260503070204 | 49 | 287 | 0.0 | 0.9 | 0.00 | 0.00 | 0.00 | 87 | 1034.2 |
| 20260503060204 | 54 | 138 | 0.9 | 2.6 | 0.00 | 0.00 | 0.00 | 80 | 1034.0 |
| 20260503054704 | 55 | 123 | 0.9 | 2.6 | 0.00 | 0.00 | 0.00 | 78 | 1033.8 |
| 20260503053704 | 56 | 121 | 0.0 | 0.9 | 0.00 | 0.00 | 0.00 | 78 | 1033.7 |
| 20260503053205 | 57 | 251 | 0.0 | 1.7 | 0.00 | 0.00 | 0.00 | 77 | 1033.7 |
| 20260503052705 | 57 | 182 | 0.0 | 0.9 | 0.00 | 0.00 | 0.00 | 76 | 1033.8 |
| 20260503051704 | 58 | 126 | 0.0 | 0.9 | 0.00 | 0.00 | 0.00 | 75 | 1033.8 |
| 20260503051204 | 59 | 213 | 0.0 | 0.9 | 0.00 | 0.00 | 0.00 | 74 | 1033.9 |
| 20260503050704 | 60 | 143 | 0.0 | 0.9 | 0.00 | 0.00 | 0.00 | 73 | 1033.6 |
| 20260503050204 | 60 | 19 | 0.0 | 4.3 | 0.00 | 0.00 | 0.00 | 72 | 1033.5 |
| 20260503045704 | 61 | 342 | 2.6 | 4.3 | 0.00 | 0.00 | 0.00 | 70 | 1033.5 |
| 20260503045204 | 61 | 340 | 2.6 | 4.3 | 0.00 | 0.00 | 0.00 | 69 | 1033.7 |
| 20260503044704 | 62 | 338 | 2.6 | 5.2 | 0.00 | 0.00 | 0.00 | 69 | 1033.8 |
| 20260503044205 | 62 | 327 | 3.5 | 5.2 | 0.00 | 0.00 | 0.00 | 68 | 1033.5 |
| 20260503043704 | 63 | 328 | 4.3 | 5.2 | 0.00 | 0.00 | 0.00 | 67 | 1033.7 |
| 20260503043204 | 63 | 334 | 4.3 | 5.2 | 0.00 | 0.00 | 0.00 | 65 | 1033.6 |
| 20260503041204 | 64 | 344 | 4.3 | 5.2 | 0.00 | 0.00 | 0.00 | 63 | 1033.7 |
| 20260503040704 | 64 | 323 | 3.5 | 5.2 | 0.00 | 0.00 | 0.00 | 64 | 1033.7 |
| 20260503040204 | 64 | 339 | 1.7 | 4.3 | 0.00 | 0.00 | 0.00 | 63 | 1033.9 |
| 20260503035704 | 64 | 323 | 4.3 | 6.1 | 0.00 | 0.00 | 0.00 | 62 | 1033.7 |
| 20260503035205 | 64 | 323 | 5.2 | 6.1 | 0.00 | 0.00 | 0.00 | 62 | 1033.9 |
| 20260503034704 | 64 | 337 | 4.3 | 6.1 | 0.00 | 0.00 | 0.00 | 63 | 1033.6 |
| 20260503034204 | 65 | 345 | 3.5 | 6.1 | 0.00 | 0.00 | 0.00 | 61 | 1033.7 |
| 20260503033704 | 64 | 333 | 4.3 | 7.8 | 0.00 | 0.00 | 0.00 | 62 | 1033.8 |
| 20260503033204 | 64 | 305 | 3.5 | 5.2 | 0.00 | 0.00 | 0.00 | 64 | 1033.7 |
| 20260503032705 | 64 | 349 | 2.6 | 6.1 | 0.00 | 0.00 | 0.00 | 60 | 1033.8 |
| 20260503032204 | 64 | 333 | 4.3 | 7.0 | 0.00 | 0.00 | 0.00 | 60 | 1033.7 |
| 20260503031704 | 64 | 342 | 2.6 | 5.2 | 0.00 | 0.00 | 0.00 | 60 | 1033.8 |
| 20260503031204 | 64 | 314 | 3.5 | 5.2 | 0.00 | 0.00 | 0.00 | 61 | 1033.8 |
| 20260503030704 | 64 | 322 | 1.7 | 5.2 | 0.00 | 0.00 | 0.00 | 62 | 1034.0 |
| 20260503025704 | 64 | 290 | 0.9 | 5.2 | 0.00 | 0.00 | 0.00 | 64 | 1033.9 |
| 20260503025205 | 64 | 304 | 1.7 | 5.2 | 0.00 | 0.00 | 0.00 | 61 | 1033.9 |
| 20260503024704 | 64 | 326 | 2.6 | 7.0 | 0.00 | 0.00 | 0.00 | 59 | 1034.0 |
| 20260503023204 | 64 | 320 | 1.7 | 2.6 | 0.00 | 0.00 | 0.00 | 63 | 1034.1 |
| 20260503022704 | 64 | 318 | 1.7 | 4.3 | 0.00 | 0.00 | 0.00 | 63 | 1034.0 |
| 20260503022204 | 64 | 253 | 1.7 | 5.2 | 0.00 | 0.00 | 0.00 | 64 | 1034.1 |
| 20260503021704 | 64 | 336 | 4.3 | 7.0 | 0.00 | 0.00 | 0.00 | 62 | 1034.0 |
| 20260503020705 | 64 | 13 | 2.6 | 5.2 | 0.00 | 0.00 | 0.00 | 60 | 1034.3 |
| 20260503015704 | 64 | 22 | 5.2 | 7.0 | 0.00 | 0.00 | 0.00 | 60 | 1034.2 |
| 20260503015204 | 64 | 356 | 4.3 | 7.0 | 0.00 | 0.00 | 0.00 | 62 | 1034.3 |
| 20260503014704 | 64 | 335 | 4.3 | 7.8 | 0.00 | 0.00 | 0.00 | 60 | 1034.3 |
| 20260503014204 | 64 | 327 | 1.7 | 5.2 | 0.00 | 0.00 | 0.00 | 62 | 1034.3 |
| 20260503013704 | 65 | 260 | 1.7 | 5.2 | 0.00 | 0.00 | 0.00 | 63 | 1034.3 |
| 20260503013204 | 65 | 320 | 2.6 | 8.7 | 0.00 | 0.00 | 0.00 | 62 | 1034.2 |
| 20260503012204 | 64 | 328 | 2.6 | 7.8 | 0.00 | 0.00 | 0.00 | 61 | 1034.4 |
| 20260503011704 | 64 | 28 | 5.2 | 7.8 | 0.00 | 0.00 | 0.00 | 59 | 1034.7 |
| 20260503011204 | 64 | 28 | 5.2 | 7.0 | 0.00 | 0.00 | 0.00 | 63 | 1034.7 |
| 20260503010704 | 63 | 316 | 2.6 | 4.3 | 0.00 | 0.00 | 0.00 | 64 | 1034.9 |
| 20260503010205 | 64 | 297 | 1.7 | 7.0 | 0.00 | 0.00 | 0.00 | 66 | 1034.8 |
| 20260503005704 | 64 | 330 | 2.6 | 7.0 | 0.00 | 0.00 | 0.00 | 64 | 1034.9 |
| 20260503005204 | 63 | 281 | 1.7 | 4.3 | 0.00 | 0.00 | 0.00 | 69 | 1034.9 |
| 20260503004204 | 63 | 340 | 3.5 | 5.2 | 0.00 | 0.00 | 0.00 | 64 | 1035.0 |
| 20260503003705 | 63 | 279 | 2.6 | 6.1 | 0.00 | 0.00 | 0.00 | 68 | 1035.2 |
| 20260503003204 | 63 | 315 | 4.3 | 7.0 | 0.00 | 0.00 | 0.00 | 64 | 1035.4 |
| 20260503002704 | 63 | 327 | 4.3 | 6.1 | 0.00 | 0.00 | 0.00 | 65 | 1035.2 |
| 20260503002204 | 63 | 340 | 2.6 | 10.4 | 0.00 | 0.00 | 0.00 | 65 | 1035.3 |
| 20260503001704 | 63 | 327 | 1.7 | 5.2 | 0.00 | 0.00 | 0.00 | 71 | 1035.5 |
| 20260503001204 | 63 | 304 | 2.6 | 6.1 | 0.00 | 0.00 | 0.00 | 72 | 1035.3 |
| 20260503000705 | 62 | 323 | 2.6 | 7.8 | 0.00 | 0.00 | 0.00 | 69 | 1035.7 |
| 20260503000204 | 63 | 339 | 1.7 | 6.1 | 0.00 | 0.00 | 0.00 | 70 | 1035.6 |
| 20260502235703 | 62 | 326 | 2.6 | 5.2 | 0.00 | 0.00 | 0.00 | 73 | 1035.8 |
| 20260502235204 | 62 | 330 | 4.3 | 6.1 | 0.00 | 0.00 | 0.00 | 71 | 1035.7 |
| 20260502234704 | 62 | 351 | 2.6 | 4.3 | 0.00 | 0.00 | 0.00 | 73 | 1035.9 |
| 20260502234204 | 61 | 332 | 3.5 | 5.2 | 0.00 | 0.00 | 0.00 | 74 | 1036.1 |
| 20260502233704 | 61 | 320 | 4.3 | 7.0 | 0.00 | 0.00 | 0.00 | 74 | 1036.2 |
| 20260502233203 | 61 | 327 | 5.2 | 7.0 | 0.00 | 0.00 | 0.00 | 76 | 1036.1 |
| 20260502232704 | 61 | 339 | 2.6 | 5.2 | 0.00 | 0.00 | 0.00 | 74 | 1036.2 |
| 20260502232205 | 60 | 316 | 2.6 | 5.2 | 0.00 | 0.00 | 0.00 | 78 | 1036.0 |
| 20260502231704 | 60 | 309 | 2.6 | 5.2 | 0.00 | 0.00 | 0.00 | 80 | 1036.1 |
| 20260502231204 | 59 | 320 | 1.7 | 4.3 | 0.00 | 0.00 | 0.00 | 78 | 1036.2 |
| 20260502230704 | 59 | 309 | 2.6 | 4.3 | 0.00 | 0.00 | 0.00 | 80 | 1036.0 |
| 20260502230204 | 58 | 19 | 2.6 | 5.2 | 0.00 | 0.00 | 0.00 | 78 | 1036.2 |
| 20260502225704 | 58 | 340 | 2.6 | 4.3 | 0.00 | 0.00 | 0.00 | 80 | 1036.3 |
| 20260502224704 | 57 | 333 | 2.6 | 4.3 | 0.00 | 0.00 | 0.00 | 81 | 1036.3 |
| 20260502224204 | 57 | 328 | 2.6 | 5.2 | 0.00 | 0.00 | 0.00 | 83 | 1036.4 |
| 20260502223704 | 56 | 322 | 1.7 | 4.3 | 0.00 | 0.00 | 0.00 | 84 | 1036.3 |
| 20260502223204 | 56 | 344 | 1.7 | 5.2 | 0.00 | 0.00 | 0.00 | 83 | 1036.3 |
| 20260502222703 | 55 | 332 | 2.6 | 4.3 | 0.00 | 0.00 | 0.00 | 84 | 1036.4 |
| 20260502222204 | 55 | 299 | 2.6 | 4.3 | 0.00 | 0.00 | 0.00 | 84 | 1036.3 |
| 20260502221706 | 55 | 322 | 1.7 | 4.3 | 0.00 | 0.00 | 0.00 | 87 | 1036.3 |
| 20260502220704 | 54 | 332 | 1.7 | 2.6 | 0.00 | 0.00 | 0.00 | 85 | 1036.4 |
| 20260502220204 | 53 | 334 | 1.7 | 2.6 | 0.00 | 0.00 | 0.00 | 86 | 1036.4 |
| 20260502215704 | 52 | 351 | 0.0 | 4.3 | 0.00 | 0.00 | 0.00 | 87 | 1036.2 |
| 20260502214704 | 51 | 309 | 3.5 | 5.2 | 0.00 | 0.00 | 0.00 | 88 | 1036.3 |
| 20260502214204 | 52 | 319 | 3.5 | 5.2 | 0.00 | 0.00 | 0.00 | 87 | 1036.2 |
| 20260502213704 | 51 | 304 | 2.6 | 6.1 | 0.00 | 0.00 | 0.00 | 89 | 1036.4 |
| 20260502213203 | 51 | 310 | 2.6 | 6.1 | 0.00 | 0.00 | 0.00 | 90 | 1036.2 |
| 20260502212704 | 50 | 309 | 4.3 | 7.0 | 0.00 | 0.00 | 0.00 | 89 | 1036.3 |
| 20260502212204 | 50 | 324 | 2.6 | 5.2 | 0.00 | 0.00 | 0.00 | 90 | 1036.3 |
| 20260502211704 | 49 | 341 | 3.5 | 5.2 | 0.00 | 0.00 | 0.00 | 91 | 1036.3 |
| 20260502211204 | 49 | 312 | 3.5 | 5.2 | 0.00 | 0.00 | 0.00 | 92 | 1036.5 |
| 20260502210704 | 48 | 340 | 3.5 | 4.3 | 0.00 | 0.00 | 0.00 | 93 | 1036.5 |
| 20260502205704 | 46 | 334 | 1.7 | 2.6 | 0.00 | 0.00 | 0.00 | 94 | 1036.3 |
| 20260502205204 | 46 | 347 | 0.9 | 1.7 | 0.00 | 0.00 | 0.00 | 95 | 1036.5 |
| 20260502204704 | 46 | 319 | 1.7 | 2.6 | 0.00 | 0.00 | 0.00 | 96 | 1036.3 |